When you browse on this site, cookies collect data to enhance your experience and personalize the content and advertising you see.
Visit our Privacy Policy to learn more. By continuing to use the site, you agree to this use of cookies and data.
  • Em Portugal
  • Lista de países
  • Para 7 dias
  • Temperatura da água
  • Mapas de satélite
  • Mapa do tempo
  • Widgets de tempo
  • user-avatar
    Iniciar Sessão

    Previsão horária em Temnoe

    Hoje, 16 Julho, Terça-feira

    Tempo Temperatura Precipitação Vento Pressão Humidade
    00:00 +15°C° 0.4 mm 6 m/s 730 mmHg 96%
    01:00 +15°C° 0.4 mm 7 m/s 730 mmHg 96%
    02:00 +14°C° 0.1 mm 7 m/s 730 mmHg 96%
    03:00 +13°C° 0.1 mm 8 m/s 731 mmHg 95%
    04:00 +14°C° 0 mm 6 m/s 732 mmHg 98%
    05:00 +12°C° 1.6 mm 7 m/s 732 mmHg 97%
    06:00 +12°C° 1.6 mm 7 m/s 733 mmHg 96%
    07:00 +12°C° 1.6 mm 8 m/s 733 mmHg 95%
    08:00 +13°C° 0.1 mm 8 m/s 734 mmHg 91%
    09:00 +15°C° 0.1 mm 7 m/s 735 mmHg 87%
    10:00 +17°C° 0 mm 7 m/s 736 mmHg 81%
    11:00 +18°C° 0 mm 7 m/s 737 mmHg 75%
    12:00 +20°C° 0 mm 7 m/s 738 mmHg 69%
    13:00 +21°C° 0 mm 7 m/s 738 mmHg 63%
    14:00 +22°C° 0 mm 7 m/s 739 mmHg 64%
    15:00 +22°C° 0 mm 6 m/s 740 mmHg 64%
    16:00 +23°C° 0 mm 5 m/s 740 mmHg 64%
    17:00 +22°C° 0.1 mm 5 m/s 741 mmHg 71%
    18:00 +21°C° 0.1 mm 4 m/s 741 mmHg 77%
    19:00 +20°C° 0.1 mm 3 m/s 741 mmHg 84%
    20:00 +19°C° 0.1 mm 3 m/s 742 mmHg 87%
    21:00 +17°C° 0.1 mm 2 m/s 742 mmHg 90%
    22:00 +16°C° 0.1 mm 2 m/s 743 mmHg 93%
    23:00 +15°C° 0 mm 2 m/s 743 mmHg 93%

    Amanhã, 17 Julho, Quarta-feira

    Tempo Temperatura Precipitação Vento Pressão Humidade
    00:00 +15°C° 0 mm 2 m/s 743 mmHg 94%
    01:00 +14°C° 0 mm 1 m/s 743 mmHg 94%
    02:00 +14°C° 0 mm 1 m/s 744 mmHg 94%
    03:00 +13°C° 0 mm 1 m/s 744 mmHg 93%
    04:00 +13°C° 0 mm 1 m/s 744 mmHg 93%
    05:00 +14°C° 0 mm 1 m/s 744 mmHg 91%
    06:00 +15°C° 0 mm 1 m/s 744 mmHg 88%
    07:00 +15°C° 0 mm 0 m/s 744 mmHg 85%
    08:00 +19°C° 0 mm 1 m/s 744 mmHg 79%
    09:00 +21°C° 0 mm 1 m/s 744 mmHg 72%
    10:00 +21°C° 0 mm 2 m/s 744 mmHg 65%
    11:00 +23°C° 0 mm 2 m/s 744 mmHg 62%
    12:00 +24°C° 0 mm 2 m/s 744 mmHg 59%
    13:00 +24°C° 0 mm 2 m/s 744 mmHg 56%
    14:00 +24°C° 0 mm 2 m/s 744 mmHg 57%
    15:00 +24°C° 0 mm 2 m/s 744 mmHg 58%
    16:00 +24°C° 0 mm 2 m/s 744 mmHg 58%
    17:00 +24°C° 0 mm 2 m/s 744 mmHg 65%
    18:00 +23°C° 0 mm 1 m/s 744 mmHg 71%
    19:00 +22°C° 0 mm 1 m/s 744 mmHg 78%
    20:00 +20°C° 0 mm 1 m/s 744 mmHg 81%
    21:00 +18°C° 0 mm 1 m/s 744 mmHg 84%
    22:00 +16°C° 0 mm 1 m/s 744 mmHg 87%
    23:00 +15°C° 0 mm 1 m/s 744 mmHg 87%

    Depois de amanhã, 18 Julho, Quinta-feira

    Tempo Temperatura Precipitação Vento Pressão Humidade
    00:00 +14°C° 0 mm 1 m/s 743 mmHg 87%
    01:00 +14°C° 0 mm 1 m/s 743 mmHg 87%
    02:00 +13°C° 0 mm 1 m/s 743 mmHg 87%
    03:00 +13°C° 0 mm 1 m/s 743 mmHg 87%
    04:00 +13°C° 0 mm 1 m/s 743 mmHg 88%
    05:00 +14°C° 0 mm 1 m/s 743 mmHg 83%
    06:00 +16°C° 0 mm 1 m/s 743 mmHg 78%
    07:00 +19°C° 0 mm 1 m/s 742 mmHg 73%
    08:00 +21°C° 0 mm 1 m/s 742 mmHg 66%
    09:00 +22°C° 0 mm 1 m/s 742 mmHg 60%
    10:00 +24°C° 0 mm 1 m/s 742 mmHg 53%
    11:00 +25°C° 0 mm 1 m/s 742 mmHg 51%
    12:00 +26°C° 0 mm 1 m/s 742 mmHg 48%
    13:00 +27°C° 0 mm 1 m/s 741 mmHg 46%
    14:00 +27°C° 0 mm 1 m/s 741 mmHg 47%
    15:00 +27°C° 0 mm 1 m/s 741 mmHg 49%
    16:00 +26°C° 0 mm 2 m/s 741 mmHg 50%
    17:00 +25°C° 0 mm 2 m/s 741 mmHg 58%
    18:00 +24°C° 0 mm 2 m/s 740 mmHg 66%
    19:00 +23°C° 0 mm 2 m/s 740 mmHg 73%
    20:00 +20°C° 0.1 mm 3 m/s 740 mmHg 77%
    21:00 +19°C° 0.1 mm 3 m/s 740 mmHg 81%
    22:00 +17°C° 0.1 mm 3 m/s 740 mmHg 85%
    23:00 +16°C° 0.1 mm 3 m/s 739 mmHg 86%

    19 Julho, Sexta-feira

    Tempo Temperatura Precipitação Vento Pressão Humidade
    00:00 +16°C° 0.1 mm 3 m/s 739 mmHg 87%
    01:00 +15°C° 0.1 mm 2 m/s 739 mmHg 88%
    02:00 +15°C° 0.1 mm 2 m/s 739 mmHg 88%
    03:00 +14°C° 0.1 mm 2 m/s 739 mmHg 89%
    04:00 +13°C° 0.1 mm 3 m/s 739 mmHg 90%
    05:00 +14°C° 0 mm 3 m/s 739 mmHg 88%
    06:00 +16°C° 0 mm 3 m/s 739 mmHg 85%
    07:00 +18°C° 0 mm 3 m/s 739 mmHg 83%
    08:00 +20°C° 0 mm 3 m/s 739 mmHg 76%
    09:00 +23°C° 0 mm 2 m/s 739 mmHg 69%
    10:00 +24°C° 0 mm 2 m/s 739 mmHg 62%
    11:00 +26°C° 0 mm 2 m/s 739 mmHg 59%
    12:00 +27°C° 0 mm 2 m/s 740 mmHg 56%
    13:00 +28°C° 0 mm 1 m/s 740 mmHg 53%
    14:00 +28°C° 0 mm 2 m/s 740 mmHg 55%
    15:00 +28°C° 0 mm 2 m/s 740 mmHg 57%
    16:00 +27°C° 0 mm 2 m/s 740 mmHg 60%
    17:00 +26°C° 0 mm 2 m/s 740 mmHg 65%
    18:00 +25°C° 0 mm 2 m/s 740 mmHg 71%
    19:00 +24°C° 0 mm 1 m/s 740 mmHg 76%
    20:00 +23°C° 0 mm 1 m/s 740 mmHg 79%
    21:00 +21°C° 0 mm 1 m/s 740 mmHg 81%
    22:00 +20°C° 0 mm 1 m/s 740 mmHg 84%
    23:00 +17°C° 0 mm 0 m/s 740 mmHg 84%

    20 Julho, Sábado

    Tempo Temperatura Precipitação Vento Pressão Humidade
    00:00 +17°C° 0 mm 0 m/s 740 mmHg 85%
    01:00 +17°C° 0 mm 0 m/s 741 mmHg 85%
    02:00 +17°C° 0.1 mm 0 m/s 741 mmHg 84%
    03:00 +17°C° 0.1 mm 0 m/s 741 mmHg 84%
    04:00 +19°C° 0.1 mm 1 m/s 741 mmHg 83%
    05:00 +18°C° 0 mm 0 m/s 741 mmHg 82%
    06:00 +19°C° 0 mm 0 m/s 741 mmHg 82%
    07:00 +19°C° 0 mm 0 m/s 741 mmHg 81%
    08:00 +21°C° 0 mm 0 m/s 741 mmHg 75%
    09:00 +23°C° 0 mm 0 m/s 741 mmHg 69%
    10:00 +25°C° 0 mm 0 m/s 741 mmHg 63%
    11:00 +27°C° 0.3 mm 1 m/s 741 mmHg 62%
    12:00 +27°C° 0.3 mm 1 m/s 741 mmHg 61%
    13:00 +28°C° 0.3 mm 2 m/s 741 mmHg 60%
    14:00 +28°C° 0.1 mm 2 m/s 741 mmHg 61%
    15:00 +28°C° 0.1 mm 2 m/s 741 mmHg 61%
    16:00 +28°C° 0.1 mm 2 m/s 741 mmHg 61%
    17:00 +27°C° 0.1 mm 2 m/s 741 mmHg 68%
    18:00 +26°C° 0.1 mm 2 m/s 741 mmHg 75%
    19:00 +25°C° 0.1 mm 1 m/s 741 mmHg 82%
    20:00 +23°C° 0 mm 1 m/s 741 mmHg 85%
    21:00 +21°C° 0 mm 1 m/s 741 mmHg 87%
    22:00 +19°C° 0 mm 2 m/s 741 mmHg 90%
    23:00 +19°C° 0 mm 1 m/s 741 mmHg 91%

    21 Julho, Domingo

    Tempo Temperatura Precipitação Vento Pressão Humidade
    00:00 +18°C° 0 mm 1 m/s 741 mmHg 92%
    01:00 +18°C° 0 mm 1 m/s 741 mmHg 93%
    02:00 +16°C° 0 mm 1 m/s 741 mmHg 94%
    03:00 +16°C° 0 mm 1 m/s 741 mmHg 94%
    04:00 +15°C° 0 mm 1 m/s 741 mmHg 94%
    05:00 +16°C° 0 mm 1 m/s 741 mmHg 92%
    06:00 +17°C° 0 mm 2 m/s 741 mmHg 90%
    07:00 +19°C° 0 mm 2 m/s 741 mmHg 87%
    08:00 +20°C° 0 mm 3 m/s 741 mmHg 82%
    09:00 +21°C° 0 mm 3 m/s 741 mmHg 76%
    10:00 +24°C° 0 mm 3 m/s 740 mmHg 70%
    11:00 +23°C° 0.2 mm 4 m/s 741 mmHg 70%
    12:00 +25°C° 0.2 mm 4 m/s 741 mmHg 70%
    13:00 +25°C° 0.2 mm 4 m/s 741 mmHg 71%
    14:00 +25°C° 0.4 mm 4 m/s 740 mmHg 71%
    15:00 +23°C° 0.4 mm 4 m/s 740 mmHg 71%
    16:00 +23°C° 0.4 mm 4 m/s 740 mmHg 71%
    17:00 +22°C° 0.2 mm 4 m/s 740 mmHg 75%
    18:00 +22°C° 0.2 mm 3 m/s 740 mmHg 79%
    19:00 +21°C° 0.2 mm 3 m/s 741 mmHg 83%
    20:00 +19°C° 0 mm 3 m/s 740 mmHg 87%
    21:00 +18°C° 0 mm 2 m/s 740 mmHg 91%
    22:00 +16°C° 0 mm 2 m/s 740 mmHg 96%
    23:00 +16°C° 0 mm 2 m/s 740 mmHg 96%
    Mostrar mais